www.pogodaiklimat.ru

Погода и климат >> Архив погоды >> Австралия >> Западная Австралия >> Параберду


ПОГОДА в Параберду

  • Прогноз погоды в Параберду
  • Монитор погоды в Параберду

АРХИВ ПОГОДЫ в Параберду

Время (UTC), дата Ветер
(напр.,м/с)
 
Видим.   Явления Облачность Т
(С)
Тd
(С)
f
(%)
Тe
(С)
Тes
(С)
Комфортность P
(гПа)
Po
(гПа)
Тmin
(С)
Tmax
(С)
R
(мм)
R24
(мм)
S
(см)
19 11.02 З 4 н/о 10/0
[]
+34.3 +10.8 24 +34 +34 очень
жарко
1006.6 960.4
21 11.02 З 2 н/о н/о +32.4 +11.6 28 +32 +32 жарко 1007.2 961.0
22 11.02 ЮВ 2 н/о 9/0
[]
+29.9 +11.4 32 +30 +30 жарко 1007.7 961.5
00 12.02 СВ 2 н/о н/о +34.2 +11.4 25 +34 +34 очень
жарко
1008.8 962.5
01 12.02 В 5 н/о 3/0
[]
+36.6 +4.8 14 +34 +39 очень
жарко
1009.1 962.8 +29.8
03 12.02 ЮВ 6 н/о н/о +40.1 +2.7 10 +37 +37 очень
жарко
1008.5 962.2
04 12.02 Ю 6 н/о 1/0
[]
+39.6 +2.3 10 +36 +45 очень
жарко
1008.1 961.8
06 12.02 ЮВ 3 н/о н/о +40.6 +3.1 10 +37 +37 очень
жарко
1006.7 960.5
07 12.02 Ю 6 н/о 4/0
[]
+40.2 +1.3 9 +37 +40 очень
жарко
1006.0 959.8
09 12.02 Ю 6 н/о н/о +40.6 +3.1 10 +37 +37 очень
жарко
1005.1 959.0
10 12.02 Ю 5 н/о 3/0
[]
+40.6 +3.1 10 +37 +37 очень
жарко
1005.8 959.7
12 12.02 Ю 3 н/о н/о +36.8 +3.9 13 +34 +34 очень
жарко
1006.9 960.7
13 12.02 Ю 2 н/о 3/0
[]
+35.7 +4.1 14 +33 +33 жарко 1007.1 960.9 +42.9
15 12.02 СЗ 4 н/о н/о +34.7 +10.5 23 +34 +34 очень
жарко
1007.8 961.6
16 12.02 ЮЗ 3 н/о 10/0
[]
+33.5 +11.9 27 +34 +34 очень
жарко
1007.7 961.5
18 12.02 ЮВ 4 н/о н/о +32.4 +11.6 28 +32 +32 жарко 1007.7 961.5
19 12.02 ЮЗ 4 н/о 9/0
[]
+33.4 +13.5 30 +34 +34 очень
жарко
1007.6 961.4
21 12.02 ЮВ 2 н/о н/о +29.4 +13.2 37 +31 +31 жарко 1007.9 961.7
22 12.02 ЮВ 2 н/о н/о +28.1 +12.8 39 +30 +30 жарко 1008.4 962.1
00 13.02 Ю 2 н/о н/о +34.6 +13.4 28 +35 +35 очень
жарко
1009.6 963.3
01 13.02 В 5 н/о н/о +36.9 +6.0 15 +34 +34 очень
жарко
1009.6 963.3 +28.2
03 13.02 В 7 н/о н/о +40.2 +2.8 10 +37 +37 очень
жарко
1008.8 962.5
04 13.02 С 6 н/о 5/0
[]
+40.7 +1.7 9 +37 +44 очень
жарко
1007.9 961.7
06 13.02 С 5 н/о н/о +41.7 +2.4 9 +38 +38 очень
жарко
1006.3 960.1
07 13.02 З 3 н/о 10/0
[]
+41.9 +2.6 9 +38 +44 очень
жарко
1005.6 959.5
09 13.02 СЗ 4 н/о н/о +42.3 +2.8 9 +39 +39 очень
жарко
1004.7 958.6
10 13.02 СЗ 5 н/о 3/0
[]
+41.1 +3.4 10 +38 +38 очень
жарко
1005.0 958.9
12 13.02 З 4 н/о н/о +37.7 +9.3 18 +36 +36 очень
жарко
1006.5 960.3
13 13.02 З 4 н/о 9/0
[]
+37.4 +9.1 18 +36 +36 очень
жарко
1007.2 961.0 +43.4
15 13.02 С 3 н/о н/о +34.5 +10.4 23 +34 +34 очень
жарко
1007.6 961.4
16 13.02 С 5 н/о н/о +34.5 +12.2 26 +35 +35 очень
жарко
1007.5 961.3
18 13.02 С 4 н/о н/о +33.0 +14.1 32 +34 +34 очень
жарко
1007.0 960.8
19 13.02 С 4 н/о 5/0
[]
+32.6 +13.8 32 +34 +34 очень
жарко
1007.2 961.0
21 13.02 С 2 н/о н/о +29.9 +13.6 37 +31 +31 жарко 1007.3 961.1
22 13.02 СЗ 2 н/о 5/0
[]
+29.4 +14.0 39 +31 +31 жарко 1007.9 961.7
00 14.02 З 4 н/о н/о +32.8 +14.4 33 +34 +34 очень
жарко
1009.0 962.7
01 14.02 З 5 н/о н/о +35.1 +12.7 26 +35 +35 очень
жарко
1009.2 962.9 +28.7
03 14.02 ЮЗ 5 н/о н/о +39.6 +7.1 14 +37 +37 очень
жарко
1009.1 962.8
04 14.02 З 5 н/о н/о +39.5 +7.1 14 +37 +37 очень
жарко
1008.4 962.1
06 14.02 З 5 н/о н/о +40.9 +5.9 12 +38 +38 очень
жарко
1006.9 960.7
07 14.02 СЗ 8 н/о н/о +41.4 +6.3 12 +39 +39 очень
жарко
1006.1 959.9
09 14.02 СЗ 5 н/о н/о +40.6 +6.8 13 +38 +38 очень
жарко
1005.7 959.6
10 14.02 З 6 н/о н/о +40.7 +6.9 13 +38 +38 очень
жарко
1006.0 959.8
12 14.02 З 6 н/о н/о +38.3 +7.1 15 +36 +36 очень
жарко
1008.1 961.8
13 14.02 З 4 н/о 10/0
[]
+37.6 +7.5 16 +35 +35 очень
жарко
1008.8 962.5 +42.9
15 14.02 СЗ 4 н/о н/о +36.1 +8.0 18 +34 +34 очень
жарко
1009.7 963.4
16 14.02 СЗ 5 н/о н/о +34.8 +8.5 20 +33 +33 жарко 1009.6 963.3
18 14.02 З 3 н/о н/о +31.6 +9.2 25 +31 +31 жарко 1009.6 963.3
19 14.02 З 3 н/о н/о +30.7 +9.6 27 +30 +30 жарко 1009.6 963.3
21 14.02 З 4 н/о н/о +29.7 +9.3 28 +29 +29 жарко 1010.4 964.0
22 14.02 СЗ 2 н/о н/о +28.1 +9.9 32 +28 +28 жарко 1011.1 964.7
00 15.02 З 3 н/о н/о +32.9 +10.9 26 +33 +33 жарко 1012.1 965.7
01 15.02 Ю 4 н/о н/о +35.0 +9.4 21 +34 +34 очень
жарко
1012.5 966.0 +28.0
03 15.02 Ю 4 н/о н/о +38.5 +4.1 12 +35 +35 очень
жарко
1011.1 964.7
04 15.02 Ю 5 н/о н/о +40.3 +4.2 11 +37 +37 очень
жарко
1010.1 963.8
06 15.02 З 3 н/о н/о +42.3 +4.3 10 +39 +39 очень
жарко
1008.6 962.3
07 15.02 Ю 4 н/о н/о +43.4 +5.2 10 +41 +41 опасность
перегрева
1008.1 961.8
09 15.02 ЮЗ 4 н/о н/о +41.9 +2.6 9 +38 +38 очень
жарко
1007.8 961.6
10 15.02 Ю 5 н/о н/о +41.3 +3.6 10 +38 +38 очень
жарко
1007.8 961.6
12 15.02 ЮЗ 3 н/о н/о +38.7 +4.2 12 +36 +36 очень
жарко
1009.2 962.9
13 15.02 ЮЗ 2 н/о н/о +35.5 +5.8 16 +33 +33 жарко 1009.7 963.4 +43.6
15 15.02 Ю 5 н/о н/о +36.5 +2.5 12 +33 +33 жарко 1009.9 963.6
16 15.02 Ю 4 н/о 6/0
[]
+35.7 +3.0 13 +33 +33 жарко 1009.9 963.6
18 15.02 ЮЗ 3 н/о н/о +33.8 +2.6 14 +31 +31 жарко 1009.9 963.6
19 15.02 ЮЗ 2 н/о н/о +33.3 +2.2 14 +30 +30 жарко 1009.7 963.4
21 15.02 штиль 0 н/о н/о +28.8 +3.6 20 +27 +27 жарко 1010.3 963.9
22 15.02 ЮЗ 3 н/о н/о +29.8 +2.9 18 +28 +28 жарко 1010.9 964.5
00 16.02 Ю 3 н/о н/о +34.4 +2.0 13 +31 +31 жарко 1011.6 965.2
01 16.02 Ю 5 н/о н/о +36.0 +0.9 11 +32 +32 жарко 1011.7 965.3 +28.1
03 16.02 В 6 н/о н/о +40.1 -0.4 8 +36 +36 очень
жарко
1010.7 964.3
04 16.02 ЮВ 6 н/о н/о +41.8 +0.8 8 +38 +38 очень
жарко
1009.4 963.1
06 16.02 Ю 5 н/о н/о +42.5 +1.3 8 +39 +39 очень
жарко
1007.3 961.1
07 16.02 З 4 н/о н/о +43.3 +1.9 8 +40 +40 очень
жарко
1006.5 960.3
09 16.02 З 5 н/о н/о +43.0 -0.1 7 +39 +39 очень
жарко
1006.0 959.8
10 16.02 ЮЗ 6 н/о н/о +42.3 -0.6 7 +38 +38 очень
жарко
1006.0 959.8
12 16.02 Ю 3 н/о н/о +37.2 -0.9 9 +33 +33 жарко 1007.0 960.8
13 16.02 Ю 4 н/о 8/0
[]
+37.2 +0.5 10 +34 +34 очень
жарко
1007.3 961.1 +44.4
15 16.02 Ю 5 н/о н/о +36.9 +0.3 10 +33 +33 жарко 1007.8 961.6
16 16.02 ЮЗ 4 н/о н/о +35.7 +0.7 11 +32 +32 жарко 1007.5 961.3
18 16.02 Ю 2 н/о н/о +32.7 +1.7 14 +30 +30 жарко 1007.5 961.3
19 16.02 штиль 0 н/о н/о +28.3 +2.5 19 +26 +26 жарко 1007.4 961.2
21 16.02 С 1 н/о н/о +25.8 +3.1 23 +25 +25 комфорт 1007.6 961.4
22 16.02 ЮВ 2 н/о н/о +25.6 +3.6 24 +25 +25 комфорт 1007.8 961.6
00 17.02 З 2 н/о н/о +33.1 +3.0 15 +30 +30 жарко 1008.7 962.4
01 17.02 ЮВ 3 н/о н/о +37.5 +0.7 10 +34 +34 очень
жарко
1008.5 962.2 +25.0
03 17.02 С 3 н/о н/о +40.4 -2.0 7 +36 +36 очень
жарко
1007.1 960.9
04 17.02 ЮЗ 3 н/о н/о +42.2 -0.7 7 +38 +38 очень
жарко
1006.3 960.1
06 17.02 ЮЗ 6 н/о н/о +43.9 -1.6 6 +40 +40 очень
жарко
1004.4 958.3
07 17.02 СЗ 3 н/о н/о +43.9 +0.5 7 +40 +40 очень
жарко
1003.6 957.6
09 17.02 З 5 н/о н/о +43.5 -1.9 6 +40 +40 очень
жарко
1002.8 956.8
10 17.02 З 5 н/о н/о +42.9 -0.2 7 +39 +39 очень
жарко
1003.0 957.0
12 17.02 ЮЗ 3 н/о н/о +39.7 -0.7 8 +36 +36 очень
жарко
1004.3 958.2
13 17.02 ЮЗ 3 н/о 9/0
[]
+38.6 +1.6 10 +35 +35 очень
жарко
1004.8 958.7 +45.5
15 17.02 СЗ 4 н/о н/о +36.2 +2.3 12 +33 +33 жарко 1005.8 959.7
16 17.02 З 3 н/о н/о +34.8 +1.2 12 +31 +31 жарко 1005.8 959.7
18 17.02 ЮЗ 2 н/о н/о +32.5 +1.6 14 +29 +29 жарко 1005.3 959.2
19 17.02 З 1 н/о 9/0
[]
+30.1 +2.4 17 +28 +28 жарко 1005.3 959.2
21 17.02 штиль 0 н/о н/о +28.3 +3.2 20 +27 +27 жарко 1005.8 959.7
22 17.02 штиль 0 н/о н/о +27.6 +4.6 23 +26 +26 жарко 1006.3 960.1
00 18.02 З 2 н/о н/о +32.3 +10.4 26 +32 +32 жарко 1007.0 960.8
01 18.02 С 2 н/о н/о +34.5 +11.0 24 +34 +34 очень
жарко
1007.1 960.9 +27.0
03 18.02 С 2 н/о н/о +40.0 +2.6 10 +37 +37 очень
жарко
1006.6 960.4
04 18.02 З 4 н/о н/о +41.0 +1.9 9 +37 +37 очень
жарко
1006.0 959.8
06 18.02 З 6 н/о н/о +43.5 +0.2 7 +40 +40 очень
жарко
1004.3 958.2
07 18.02 ЮЗ 7 н/о н/о +43.1 -0.1 7 +39 +39 очень
жарко
1003.8 957.7
09 18.02 З 6 н/о н/о +43.6 +0.3 7 +40 +40 очень
жарко
1003.2 957.2
10 18.02 ЮЗ 4 н/о н/о +42.1 +1.1 8 +38 +38 очень
жарко
1003.4 957.4
12 18.02 ЮЗ 3 н/о н/о +39.4 +0.7 9 +36 +36 очень
жарко
1004.5 958.4
13 18.02 З 4 н/о 10/0
[]
+38.5 +1.5 10 +35 +35 очень
жарко
1005.5 959.4 +45.4
15 18.02 СЗ 3 н/о н/о +34.8 0.0 11 +31 +31 жарко 1006.7 960.5
16 18.02 СЗ 3 н/о 1/0
[]
+32.6 +1.7 14 +30 +30 жарко 1006.5 960.3
18 18.02 СЗ 3 н/о н/о +30.6 +1.9 16 +28 +28 жарко 1006.1 959.9
19 18.02 СЗ 3 н/о 5/0
[]
+30.0 +1.5 16 +27 +27 жарко 1006.1 959.9

 

Местоположение метеостанции Параберду (Западная Австралия, Австралия): широта -23.17 долгота 117.75 высота над уровнем моря 424 м.

В архиве по умолчанию представлена погода в Параберду за последнюю неделю. Архивные данные за месяц целиком и за предыдущие месяцы, начиная с января 2011 года, Вы можете получить, выбрав интересующий диапазон дат из раскрывающегося списка и нажав кнопку "Ввод!".


*Определитесь, кто Вы:
робот инопланетянин человек

Внимание! Время в таблицах - всемирное. Для получения местного времени необходимо прибавить поправку, которая равна 8 ч.

Смотрите также архив погоды в соседних городах и на ближайших метеорологических станциях:

Погода в Ньюмане (Западная Австралия, Австралия) (211 км)
Погода в Роборне (Западная Австралия, Австралия) (276 км)
Погода в Марди (Западная Австралия, Австралия) (287 км)
Погода в Каррате (Западная Австралия, Австралия) (291 км)
Погода в Марбл-баре (Западная Австралия, Австралия) (302 км)
Погода в Онслоу (Западная Австралия, Австралия) (318 км)
Погода в Порт-Хедленде (Западная Австралия, Австралия) (325 км)
Погода на Острове Тевенард (Западная Австралия, Австралия) (340 км)
Погода в Барроу-Айленд (Западная Австралия, Австралия) (352 км)
Погода на Острове Варанас (Западная Австралия, Австралия) (359 км)

Пояснения к столбцам:

Ветер - указаны скорость ветра в м/с - средняя за 10 мин, порывы в срок и между сроками (в фигурных скобках) и направление, откуда дует ветер: С - северный, СВ - северо-восточный, В - восточный, ЮВ - юго-восточный, Ю - южный, ЮЗ - юго-западный, З - западный, СЗ - северо-западный.
Видимость - горизонтальная дальность видимости в метрах или километрах. При видимости от 1 до 10 км при отсутствии осадков обычно наблюдается дымка, при ухудшении видимости до 1 км и менее - туман. В сухую погоду видимость может ухудшаться дымом, пылью или мглою.
Явления - указаны атмосферные явления, наблюдавшиеся в срок или в последний час перед сроком; фигурными скобками обозначены явления, наблюдавшиеся между сроками (за 1-3 часа до срока); квадратными скобками обозначены град или гололедные отложения с указанием их диаметра в мм.
Облачность - указаны через наклонную черту общая и нижняя облачность в баллах и высота нижней границы облаков в метрах; квадратными скобками обозначены формы облаков: Ci - перистые, Cs - перисто-слоистые, Cc - перисто-кучевые, Ac - высококучевые, As - высокослоистые, Sc - слоисто-кучевые, Ns - слоисто-дождевые, Cu - кучевые, Cb - кучево-дождевые. Подробнее классификацию облаков см. в Атласе облаков (PDF).
T - Температура воздуха - температура, измеренная на высоте 2 м над землей.
Td - Температура точки росы - температура, при понижении до которой содержащийся в воздухе водяной пар достигнет насыщения.
f - Относительная влажность воздуха - влажноcть воздуха, измеренная на высоте 2 м над землей.
Te - Эффективная температура - температура, которую ощущает одетый по сезону человек в тени. Характеристика душности погоды. При расчете учитывается влияние влажности воздуха и скорости ветра на теплоощущения человека.
Tes - Эффективная температура на солнце - температура, которую ощущает человек, с поправкой на солнечный нагрев. Характеристика знойности погоды. Зависит от высоты солнца над горизонтом, облачности и скорости ветра. Ночью, в пасмурную погоду, а также при ветре 12 м/с и более поправка равна нулю.
P - Атмосферное давление - приведенное к уровню моря атмосферное давление.
Po - Атмосферное давление - измеренное на уровне метеостанции атмосферное давление.
Tmin - Минимальная температура - минимум температуры воздуха на высоте 2 м над землей.
Tmax - Максимальная температура - максимум температуры воздуха на высоте 2 м над землей.
R - Количество осадков - Количество выпавших осадков за период времени, мм. При наведении курсора мыши на число - период времени, за который выпало указанное количество осадков.
R24 - Количество осадков - Количество выпавших осадков за 24 часа, мм.
S - Снежный покров - Высота снежного покрова, см. При наведении курсора мыши на число - состояние снежного покрова и степень покрытия местности в баллах.